Theta_e
321 321 321 321 321 321 319 319 322 324 325 325 323 322 319 319 321 322 324 323 322 323 323 325 330 329 327 328 330 329 329 333 333 330 331 331 331 331 327 323 322 322 321 320 317 314 312 314 324 330 331 331 332 331 331 329 323 318 314 317 324 325 325 323 319 317 320 323 324 326 326 325 325 327 324 320 322 326 326 326 328 328 325 323 322 321 319 320 325 325 324 324 324 324 325 326 326
320 321 321 320 321 320 318 320 325 332 331 323 322 321 318 319 321 326 326 325 325 322 322 327 330 328 326 327 327 328 330 331 328 327 331 332 332 330 325 322 322 322 321 320 317 315 312 313 320 327 330 331 331 332 330 329 324 320 315 316 323 325 325 325 324 319 318 324 326 328 328 327 328 329 328 326 323 326 329 328 328 326 323 324 326 326 322 322 326 325 323 324 324 325 325 326 326
319 321 320 320 322 318 320 321 324 331 327 322 325 322 317 321 326 328 325 323 323 321 324 328 329 327 326 326 327 328 330 330 328 329 332 332 330 327 324 322 322 322 321 320 318 316 312 312 315 322 328 330 331 331 330 328 324 321 315 315 322 324 325 326 328 324 319 321 324 329 329 328 329 328 330 328 323 325 328 326 325 325 325 327 328 327 323 322 324 324 324 324 324 325 325 326 326
318 320 320 321 321 319 329 329 329 329 322 322 324 321 320 325 329 323 321 323 323 324 325 327 328 327 325 326 328 327 329 330 330 331 332 332 329 326 323 322 323 321 321 321 318 317 313 312 313 317 325 329 331 330 329 328 323 320 315 314 318 322 327 327 327 327 325 324 323 326 326 324 327 328 329 326 321 323 325 323 326 326 325 326 326 326 325 323 321 323 325 324 324 324 325 326 326
316 319 319 321 321 321 328 326 327 328 321 324 321 320 323 326 326 318 320 325 323 324 325 327 329 328 327 327 327 325 327 330 331 331 331 331 329 325 323 322 323 322 322 321 319 318 314 311 312 315 322 328 329 329 330 328 324 321 317 313 312 316 325 325 324 327 328 328 325 325 327 324 324 326 326 323 321 322 322 323 327 326 324 325 326 326 326 323 319 320 322 323 324 324 325 325 325
315 317 319 320 320 318 323 320 322 326 325 326 321 321 322 319 321 319 321 326 322 322 323 326 327 327 328 328 327 324 327 331 331 331 330 330 328 325 324 322 322 322 322 321 319 318 315 312 311 314 321 327 327 329 330 327 325 322 318 316 312 312 322 326 324 325 327 328 326 325 326 324 323 325 324 321 319 321 322 323 324 324 325 326 326 326 325 322 319 320 320 321 322 322 322 322 322
315 318 318 321 320 318 326 327 328 330 323 320 319 321 318 314 317 321 322 325 323 321 323 326 325 325 328 328 329 328 330 332 330 330 330 330 328 326 324 323 322 322 322 321 319 318 316 313 311 313 318 324 326 328 329 328 328 325 320 318 313 310 317 324 323 322 326 327 327 327 322 318 319 319 319 319 319 320 322 322 321 320 321 322 321 322 322 321 320 321 321 321 321 321 321 321 321
315 318 317 324 325 324 330 327 329 329 318 312 314 317 315 314 318 322 322 323 323 321 323 325 324 326 329 328 330 332 331 331 331 331 331 330 328 326 324 323 323 322 322 320 319 319 317 313 310 311 315 321 324 326 328 328 329 326 322 319 314 311 311 316 318 318 323 327 328 327 320 315 316 315 315 318 319 318 319 320 319 317 317 318 318 319 319 319 320 320 321 322 322 322 322 322 322
314 318 317 323 327 327 330 325 322 323 320 317 314 314 314 315 319 322 321 320 320 321 323 325 324 323 326 326 329 332 331 332 332 332 331 329 328 326 325 324 323 322 322 320 319 319 317 314 310 310 313 317 320 325 328 326 327 325 322 320 315 312 310 310 312 315 319 325 327 324 318 316 316 316 316 316 316 316 316 318 317 317 317 316 316 317 316 317 318 319 319 320 321 321 322 321 321
315 320 316 322 328 324 324 326 324 320 321 318 313 314 314 315 320 322 321 320 320 322 324 325 323 321 324 326 328 330 331 333 333 333 331 329 328 326 326 324 323 322 321 320 319 319 318 315 311 310 311 313 314 320 327 326 324 323 321 321 316 311 311 309 310 312 314 319 322 319 316 316 317 317 318 317 316 316 315 316 317 317 316 315 314 314 314 315 317 317 317 318 319 319 320 320 319
317 318 317 325 330 324 323 328 331 327 322 316 313 315 315 317 320 320 319 319 320 323 325 325 322 322 325 325 327 329 331 333 333 333 331 330 328 327 326 325 324 322 321 320 319 319 318 316 312 310 310 311 311 314 322 324 322 324 323 318 314 312 310 309 309 309 310 313 314 315 316 317 318 318 318 318 317 317 316 316 317 317 315 315 314 314 314 314 315 315 316 317 317 317 317 317 317
317 320 327 331 327 325 324 326 332 331 328 322 319 318 315 318 320 319 319 319 321 323 325 324 322 322 326 325 325 328 330 333 334 333 332 330 329 327 326 325 324 323 321 320 320 319 319 316 313 311 310 309 310 310 313 318 320 324 324 315 312 312 310 310 309 309 309 309 310 313 316 317 318 318 318 318 318 318 317 317 317 317 316 316 315 315 315 315 315 315 315 315 315 315 315 315 315
318 320 329 326 320 323 322 323 328 328 329 323 318 318 317 318 320 320 319 320 320 322 324 324 323 322 327 326 323 326 329 332 333 334 332 330 329 328 327 326 324 323 322 321 320 319 319 318 314 312 311 309 310 310 310 312 315 321 322 315 312 312 310 310 309 309 309 308 309 311 315 317 318 318 318 319 319 319 318 318 318 317 317 317 317 316 317 316 315 315 314 315 314 315 315 315 315
318 320 325 322 319 323 322 322 323 322 324 321 316 317 319 319 320 320 320 321 321 321 322 323 323 322 324 323 322 325 327 331 333 333 333 331 330 329 328 327 326 323 322 321 320 320 319 318 315 312 312 310 310 310 310 310 310 315 318 314 312 311 310 310 310 309 309 309 308 311 315 316 317 318 318 319 318 319 319 319 319 318 318 318 318 318 318 318 317 316 316 315 315 316 316 317 317
318 318 324 326 321 322 322 320 321 322 323 320 317 317 319 320 320 320 320 322 322 320 321 322 323 322 322 322 322 322 324 329 332 333 332 331 331 330 329 329 327 325 323 322 321 320 320 319 316 313 312 311 310 310 310 310 310 310 313 313 312 311 311 310 310 310 309 309 308 310 314 315 316 318 318 319 318 319 319 319 319 319 319 318 318 319 319 319 319 318 318 318 318 318 318 319 319
318 317 323 327 322 320 320 318 320 322 321 315 314 317 319 319 319 319 319 321 321 320 320 322 323 322 321 321 320 320 323 328 330 332 333 332 332 331 331 330 329 326 324 323 321 321 320 319 318 314 313 312 311 310 310 310 310 310 311 312 311 311 311 311 311 310 310 309 308 310 312 314 315 317 318 318 318 318 318 318 319 319 319 319 319 319 319 319 319 319 319 318 318 318 319 318 319
315 319 325 326 322 321 320 320 319 319 320 314 312 316 319 319 318 318 319 319 320 320 321 322 323 322 321 321 321 320 321 326 329 332 333 333 333 332 332 330 329 327 325 323 322 322 321 320 319 316 313 312 311 310 311 310 310 310 311 311 311 311 311 311 311 311 310 310 309 309 311 313 314 316 318 318 318 318 318 318 318 319 319 319 319 319 319 319 319 318 318 318 318 318 318 318 318
317 325 327 324 324 323 321 321 317 316 318 314 312 315 319 320 317 317 318 318 319 320 321 322 324 323 322 322 322 321 320 325 329 331 333 332 332 331 331 330 329 327 325 324 323 323 322 321 320 317 313 312 312 311 311 311 311 311 311 311 311 311 311 311 311 311 311 310 309 309 310 312 313 315 316 317 317 317 318 318 318 318 318 318 318 318 318 318 318 318 318 319 318 319 319 319 319
318 324 324 327 327 321 317 317 314 314 315 312 313 314 317 320 317 317 318 317 318 320 321 321 323 324 323 322 322 321 320 323 327 329 331 331 330 329 329 329 328 327 325 325 324 323 323 322 320 319 315 312 312 312 311 311 311 311 311 311 311 311 311 311 311 311 311 311 310 309 309 310 312 313 314 316 316 317 317 317 318 318 318 318 318 318 318 318 319 319 319 319 319 319 319 319 319
316 316 324 336 327 318 315 314 314 314 313 312 312 313 314 317 317 318 317 318 319 320 321 321 322 323 322 323 322 322 320 321 324 327 329 329 328 327 327 326 325 325 325 324 324 324 323 322 321 320 317 313 312 312 312 311 311 311 311 311 311 311 311 311 311 310 310 311 311 310 309 309 310 312 313 314 315 316 317 317 318 318 318 318 318 318 318 319 319 319 319 319 319 319 319 319 319
313 314 328 336 322 317 317 312 314 313 312 312 312 312 313 315 316 317 316 319 321 319 319 320 321 320 321 322 322 322 321 320 321 324 327 328 327 326 326 325 324 323 324 324 324 324 323 322 321 320 318 314 312 312 313 312 311 311 311 311 311 311 312 313 312 312 311 311 311 311 310 309 309 311 312 313 314 316 316 317 317 317 317 317 317 317 318 318 318 319 319 319 319 318 318 318 318
316 315 319 324 318 318 318 312 313 312 312 312 311 313 314 315 315 316 317 319 320 318 318 319 319 319 319 321 321 322 322 320 319 320 322 324 326 325 326 326 325 324 324 324 324 324 324 323 322 321 319 315 312 312 313 314 313 312 312 312 313 314 315 316 316 315 314 312 311 310 310 310 310 310 311 312 313 314 315 316 316 316 316 316 317 317 317 318 318 318 318 318 318 318 318 317 317
325 323 315 316 317 317 317 314 313 312 312 312 312 313 313 314 314 315 316 318 318 317 318 318 318 318 318 320 321 321 321 321 319 318 318 319 322 324 325 326 327 325 323 323 323 324 324 323 322 321 320 316 313 313 313 314 315 315 314 315 316 317 318 318 318 319 318 317 315 312 311 311 311 311 310 311 311 312 313 314 315 315 316 316 316 317 317 317 318 317 317 317 317 317 317 316 316
322 324 316 316 316 315 315 314 314 312 312 312 312 313 312 314 315 313 315 317 317 316 318 318 318 318 318 319 320 321 320 320 319 318 317 317 318 321 324 326 326 325 323 323 324 324 324 324 323 322 321 318 314 313 314 315 316 317 317 318 319 319 319 319 319 320 320 320 319 317 315 313 312 311 311 311 311 311 312 313 313 314 315 315 315 316 316 316 317 316 316 316 316 316 316 316 316
314 317 315 315 315 314 315 314 314 312 312 312 312 312 312 314 313 312 314 317 317 317 318 317 318 318 318 318 319 321 321 321 321 320 319 318 318 320 323 325 324 324 322 323 323 324 324 324 324 323 322 320 316 314 315 316 317 318 318 319 320 320 320 320 320 320 320 321 320 320 319 318 317 315 314 313 313 312 312 312 312 313 314 314 314 314 315 315 315 315 315 315 315 315 315 316 316
314 314 315 314 314 314 314 314 313 312 312 312 312 312 312 312 313 313 315 316 316 317 317 317 317 317 318 318 318 320 320 321 321 320 320 320 320 321 321 322 322 322 321 321 322 323 323 324 324 324 323 322 319 315 315 317 317 318 319 319 320 320 320 321 321 321 321 321 321 321 321 321 320 320 319 318 317 316 315 314 313 313 313 313 314 314 314 314 315 315 315 315 315 315 316 316 317
315 314 314 314 314 314 314 315 314 313 312 312 313 313 312 311 312 315 316 316 316 316 317 317 317 317 317 318 318 318 319 320 320 320 320 321 322 321 320 321 321 321 320 321 321 321 322 323 324 324 323 323 321 317 315 316 318 319 320 320 321 321 321 321 321 321 321 321 322 322 322 321 321 322 322 321 321 321 320 318 316 315 315 314 314 314 314 315 315 315 315 316 316 317 318 319 320
313 312 313 313 313 313 314 315 315 314 313 312 312 312 311 311 312 315 316 315 316 316 316 317 317 317 317 317 318 318 319 319 320 320 321 320 320 320 319 320 320 320 320 320 320 320 321 322 323 324 323 322 322 320 316 316 318 319 320 321 322 322 322 322 322 322 322 322 322 322 322 322 322 322 322 322 322 322 322 322 321 320 319 318 317 317 316 316 317 317 318 318 319 320 321 321 321
311 311 313 315 313 313 314 314 315 313 312 312 311 312 313 312 313 315 315 315 315 315 316 316 316 317 316 316 318 318 318 319 320 320 319 318 318 318 319 318 318 319 319 319 320 321 321 321 323 324 323 322 322 321 318 316 317 319 320 321 322 323 324 324 324 324 323 323 322 321 321 321 321 322 322 322 322 323 323 323 322 322 322 321 321 320 319 319 319 320 320 320 321 322 322 322 322
311 311 313 316 315 316 314 312 313 312 312 313 311 315 320 317 314 313 314 315 315 315 315 315 316 316 316 316 317 317 318 318 319 318 318 318 317 318 318 318 318 318 318 319 319 320 320 322 323 323 323 322 321 321 320 318 316 318 320 320 321 322 324 325 325 325 325 324 322 322 321 321 321 321 322 322 322 322 322 323 322 322 322 322 322 322 321 321 321 321 321 321 321 321 321 321 322
314 312 312 315 317 320 318 311 311 313 312 312 312 315 320 319 314 313 313 314 314 315 315 314 315 315 315 316 316 316 316 317 317 317 317 317 317 317 317 318 319 318 318 318 318 318 320 321 322 323 323 322 321 320 319 318 317 317 318 319 320 321 323 324 325 325 325 324 323 323 323 322 323 322 323 322 322 322 322 322 323 322 322 322 322 322 322 322 321 321 321 321 321 321 321 321 322
315 315 316 315 315 321 321 311 309 314 313 310 312 316 316 316 314 313 313 313 313 314 314 314 314 314 315 315 315 315 315 315 316 317 317 316 316 317 317 317 318 318 318 317 317 318 319 320 321 321 322 323 322 320 319 318 318 317 316 318 319 320 322 322 323 324 324 325 324 324 323 323 323 323 323 323 323 323 323 322 323 322 322 322 322 322 322 322 322 322 322 322 322 322 322 322 322
315 318 319 318 317 316 317 313 309 311 312 310 312 315 318 316 313 312 313 313 312 312 313 314 314 314 314 314 315 314 314 315 316 316 316 315 315 315 316 316 316 316 317 317 317 318 318 319 320 320 321 322 322 320 319 318 318 317 316 316 318 320 322 323 323 323 323 324 324 324 324 323 323 323 323 323 323 323 323 324 324 323 323 323 323 323 322 323 323 323 323 322 323 323 323 323 323
315 317 318 318 316 314 316 317 311 308 311 313 312 313 317 319 314 312 313 312 311 311 312 313 313 314 314 314 314 314 314 315 315 315 315 315 314 314 315 315 315 315 315 316 317 317 318 318 319 320 320 321 321 320 319 318 317 318 317 317 317 319 321 323 323 323 323 323 323 324 324 324 323 323 323 323 323 324 324 324 325 325 325 324 324 324 323 323 323 323 323 323 323 323 323 322 321
314 316 317 316 314 313 315 317 312 309 311 313 313 312 313 315 313 313 314 313 312 312 312 313 313 313 314 314 314 314 314 314 315 315 315 315 315 314 314 315 315 315 315 315 316 317 317 317 318 319 320 320 320 320 320 319 319 318 318 318 318 319 320 321 322 323 323 322 322 323 324 324 323 323 323 324 324 324 324 324 325 324 324 324 324 324 324 324 324 324 324 324 323 323 322 321 320
315 315 316 317 316 315 314 316 312 309 312 313 313 313 313 314 313 313 314 313 312 313 313 313 313 313 313 314 314 314 314 314 315 314 314 314 315 314 315 315 315 315 315 315 316 316 316 316 317 317 318 319 320 320 320 320 320 318 318 318 318 318 319 319 320 321 321 321 322 323 323 323 323 323 324 324 325 325 325 325 324 324 324 323 323 323 323 323 324 324 323 323 322 322 322 322 321
315 314 315 315 316 316 314 315 311 307 312 315 313 312 313 313 313 312 312 311 310 311 311 312 313 314 314 314 314 314 315 315 315 315 315 314 314 315 314 315 315 315 316 316 316 315 315 315 315 316 316 318 319 320 320 320 318 317 317 318 317 317 318 318 319 320 320 320 321 322 323 322 324 325 325 325 325 325 325 325 324 324 324 323 322 322 322 322 323 322 323 322 321 321 321 321 320
315 315 315 314 315 316 314 313 312 308 311 316 315 312 312 312 312 312 310 310 309 310 310 311 313 313 314 314 314 315 315 315 315 315 315 315 314 315 315 315 315 315 315 315 315 314 314 314 314 314 314 316 317 318 319 319 317 317 317 316 317 317 317 318 319 319 320 320 321 322 322 322 324 325 326 325 325 325 325 325 324 324 323 323 322 322 322 322 322 321 321 321 320 321 321 321 319
316 316 316 316 315 315 314 313 313 311 310 316 316 312 312 311 310 310 309 309 310 311 311 312 314 313 313 314 314 315 315 315 315 315 315 315 315 315 315 315 315 315 315 314 315 314 315 314 314 314 314 314 315 316 317 317 317 317 316 317 317 317 318 318 318 319 320 320 320 321 321 321 322 324 325 325 325 324 324 325 325 324 324 323 323 323 322 323 322 322 321 320 322 323 322 321 320
315 316 316 317 314 314 318 316 313 311 310 313 314 312 312 311 310 310 309 309 310 311 312 312 312 312 313 314 314 314 315 315 315 315 316 315 315 315 315 315 315 314 315 314 314 314 314 314 314 313 313 313 313 314 315 316 317 317 317 317 318 318 319 320 320 320 320 320 320 320 320 321 322 323 324 325 324 324 324 325 324 324 324 324 324 323 323 322 322 323 321 320 322 322 322 322 323
313 315 316 316 313 313 316 315 313 312 311 310 311 313 312 312 312 312 311 310 309 310 311 310 311 312 313 314 314 315 315 315 315 315 316 315 315 315 315 315 315 315 314 314 314 314 314 313 313 313 313 313 313 313 313 314 316 317 317 318 318 319 320 321 322 320 319 318 318 319 320 321 322 322 323 324 324 324 323 324 325 324 324 325 325 324 323 322 322 323 322 321 320 320 322 323 323
313 314 315 317 316 313 313 314 313 313 315 313 311 314 316 317 315 312 313 312 310 309 308 308 310 311 313 314 314 315 316 315 316 315 315 316 315 315 315 315 315 315 314 314 314 314 313 313 313 313 313 312 312 312 313 313 314 315 316 317 317 318 318 318 318 317 317 317 317 318 319 320 321 322 323 323 324 325 324 323 324 323 323 324 324 324 323 322 322 322 322 322 320 319 320 321 322
314 314 315 317 317 315 314 313 313 316 318 314 310 313 317 319 315 314 314 313 312 310 307 307 309 311 311 314 315 315 316 315 316 316 316 316 315 315 315 315 315 315 314 314 314 314 314 313 313 313 313 312 312 312 312 313 313 314 315 315 316 316 316 315 315 315 316 317 317 318 319 319 320 320 321 322 323 325 325 325 324 324 325 323 324 327 325 322 321 321 322 323 321 320 320 319 320
316 314 313 315 314 313 313 313 313 317 317 314 311 311 313 313 313 315 315 313 312 311 310 308 308 310 312 313 314 315 315 316 315 316 316 316 315 316 315 316 315 315 314 314 314 314 314 314 314 313 313 313 313 312 312 312 313 313 314 314 315 315 315 315 315 315 316 317 319 319 319 319 319 319 320 321 322 323 324 324 324 327 328 325 326 328 325 321 322 322 323 323 320 319 321 321 320
316 311 312 314 314 314 314 312 313 316 314 312 313 312 312 314 314 315 314 313 313 313 314 312 309 311 313 313 315 315 316 316 315 315 315 316 316 315 315 315 315 315 315 314 314 314 314 314 314 314 313 313 313 313 312 312 312 312 313 314 314 314 314 315 316 316 316 318 319 320 321 320 320 320 320 320 321 321 322 322 322 323 323 326 328 325 321 323 326 324 322 323 321 319 321 321 320
310 308 313 316 319 319 315 313 313 314 314 313 316 315 313 316 316 314 312 312 313 313 314 312 310 312 314 314 314 315 315 316 315 315 315 315 315 315 315 315 315 315 315 315 314 314 314 314 314 313 313 314 313 313 313 312 312 312 312 313 313 314 314 315 316 316 316 317 319 319 320 320 319 320 320 320 321 322 322 321 322 321 321 325 326 323 325 328 328 324 321 322 323 321 321 320 320
307 311 316 316 320 321 318 320 315 313 315 314 317 317 314 315 316 314 314 313 312 312 313 312 310 312 314 315 315 314 315 315 314 314 314 314 314 314 314 314 315 315 315 315 315 314 314 314 314 314 314 313 314 313 313 313 313 313 313 312 313 313 314 315 315 316 315 316 317 317 318 318 318 319 320 322 323 322 322 322 322 321 321 322 321 322 327 327 325 324 320 320 321 321 322 321 321
310 319 318 314 319 317 315 320 316 313 316 314 313 315 314 316 316 314 314 314 313 312 313 313 311 311 314 315 316 315 314 314 313 313 313 314 314 314 314 314 314 314 314 314 314 314 314 314 314 314 314 314 313 314 313 314 313 313 313 313 313 313 314 314 315 315 315 315 316 316 317 318 319 321 321 323 324 323 324 323 323 322 321 321 320 320 322 323 323 323 321 320 320 321 323 322 321
313 319 316 314 317 314 313 316 315 314 315 310 309 311 311 314 316 315 315 314 313 310 310 312 311 311 314 315 315 314 313 312 313 313 313 313 314 314 314 314 314 314 314 314 313 314 313 314 314 314 314 313 313 314 314 313 314 313 314 314 314 314 314 314 314 315 315 315 316 317 318 319 321 322 323 323 324 324 325 325 324 323 322 322 321 320 321 323 324 323 322 322 321 322 324 322 320
313 314 315 315 315 314 315 315 315 317 314 308 308 310 312 313 315 317 316 313 312 309 308 310 309 310 313 314 313 311 312 313 313 313 314 314 314 314 314 313 314 314 314 314 314 313 313 313 314 314 314 314 313 314 313 314 314 313 314 314 314 314 314 315 315 315 316 316 317 318 319 321 322 323 324 324 325 326 326 325 324 324 323 323 322 321 320 322 323 324 323 322 322 322 322 319 318
313 314 316 315 315 318 319 317 316 317 314 309 307 312 316 317 315 314 311 308 308 309 310 309 309 310 312 312 311 311 312 312 313 313 313 314 314 314 314 313 314 315 314 314 313 313 313 313 314 314 314 314 313 314 313 313 314 313 314 314 314 314 315 316 316 316 317 318 319 320 322 323 324 325 326 326 327 327 327 326 325 324 323 323 323 321 319 320 322 323 323 322 321 320 320 318 317
312 315 316 314 316 320 319 316 314 314 315 311 309 314 317 316 315 311 308 308 309 309 309 309 310 311 311 311 312 312 314 313 313 313 313 313 313 313 314 314 314 314 314 314 313 313 313 313 313 313 314 314 314 314 314 313 313 313 313 313 314 315 315 316 317 318 319 320 321 323 324 325 326 327 327 327 328 328 327 326 325 325 324 323 323 322 321 322 321 321 323 323 321 321 321 321 320
311 312 314 313 316 319 316 311 308 311 315 314 311 313 314 314 315 313 311 313 313 310 309 307 309 311 310 311 313 313 314 314 313 313 313 313 313 312 314 314 314 314 313 313 313 312 313 313 313 314 314 314 314 314 314 314 314 313 313 313 314 314 315 316 317 318 319 321 322 324 325 326 327 327 327 328 328 327 328 327 326 325 323 323 322 321 322 325 322 322 324 324 322 323 321 321 322
312 312 312 311 314 317 317 314 311 311 314 315 313 312 312 314 317 318 314 313 313 313 311 308 307 309 309 311 314 314 314 313 313 313 313 313 313 312 313 313 313 314 314 313 313 313 313 313 313 314 313 314 314 314 314 314 313 313 313 313 313 314 315 316 317 318 320 322 324 324 326 326 326 327 327 328 328 327 327 327 326 325 323 324 323 320 320 324 324 323 323 322 321 322 322 321 322
310 311 312 313 315 315 315 315 315 313 313 316 316 312 310 312 315 317 314 313 315 314 313 312 309 307 309 311 313 313 312 313 313 313 313 312 312 312 313 313 313 313 313 313 313 313 313 313 314 314 314 314 314 314 314 314 313 313 313 313 313 314 315 316 318 319 321 323 324 325 326 326 326 327 327 327 328 327 326 326 325 324 325 324 322 321 321 323 325 323 321 321 321 322 322 321 320
308 309 310 313 315 314 314 313 314 315 314 316 319 316 313 313 313 314 313 314 317 315 315 316 311 307 310 311 312 312 311 312 313 313 313 312 312 313 313 313 312 313 313 313 313 313 313 313 313 313 314 314 314 314 314 315 314 314 314 313 314 314 315 317 318 320 322 323 324 325 325 325 325 325 326 326 326 326 326 325 323 322 325 324 321 321 322 322 322 321 321 322 322 322 323 321 320
309 310 310 310 311 312 315 313 312 317 317 316 317 316 317 320 316 313 312 312 314 315 315 315 310 307 310 311 311 312 311 311 312 313 312 312 312 313 313 313 312 312 314 314 314 314 313 313 312 312 313 312 313 313 314 314 315 315 315 315 314 315 316 317 319 320 322 322 323 323 323 323 324 325 326 324 323 325 325 323 321 321 324 324 320 320 321 321 320 321 322 322 322 322 322 320 318
310 311 310 310 311 312 314 313 312 314 316 317 316 313 317 321 315 312 314 313 312 312 311 311 310 308 310 311 311 312 312 312 312 312 312 312 313 313 313 312 311 312 314 314 314 314 314 314 313 312 312 312 312 312 312 313 313 314 315 315 315 316 316 317 319 319 320 320 320 320 320 321 321 322 323 322 323 326 324 321 322 324 323 322 321 320 321 321 321 321 322 321 322 322 319 315 313
Wind_Speed
6 5 5 4 8 7 6 7 1 2 4 2 1 1 1 1 1 2 1 2 2 4 7 6 17 20 7 3 6 3 3 6 4 2 2 7 18 22 18 17 17 15 14 12 12 11 11 12 12 14 12 9 7 5 4 4 5 6 8 10 10 9 10 11 12 12 12 12 13 13 13 13 14 14 14 14 14 15 15 15 16 15 15 16 16 17 17 20 20 18 17 17 17 17 18 18 19
6 4 4 3 7 6 3 5 2 2 4 2 1 1 1 1 1 3 5 4 2 6 9 12 20 16 4 3 6 3 3 5 5 5 7 17 24 22 19 18 17 15 13 12 11 10 11 12 12 13 12 10 7 5 4 4 5 6 7 8 9 10 10 12 12 11 13 13 13 13 13 14 15 14 14 14 15 16 15 15 16 16 17 17 17 17 17 20 19 17 17 17 17 16 17 17 18
5 4 4 3 5 5 2 4 2 0 3 1 3 2 1 1 3 5 6 3 6 12 13 17 17 9 4 5 5 2 3 5 7 9 14 23 25 22 21 19 17 15 13 12 11 10 11 12 12 13 13 11 8 5 4 3 4 5 6 8 9 10 12 13 12 11 13 14 13 14 13 14 15 15 15 14 15 17 15 15 17 17 17 17 17 17 17 19 19 18 17 17 16 16 16 17 17
5 4 3 2 3 4 3 3 2 2 2 1 2 2 2 3 5 4 5 7 15 16 14 15 10 5 4 2 4 2 4 6 8 13 19 24 23 23 23 20 18 15 13 11 11 10 10 11 12 13 13 12 9 5 3 2 3 4 5 8 9 10 11 12 12 11 13 14 13 14 13 14 16 15 15 15 15 16 16 17 17 17 17 16 17 17 16 17 18 17 17 16 16 15 15 16 16
5 4 2 2 1 2 3 2 2 3 1 3 1 3 4 5 4 3 8 15 17 12 10 11 5 5 4 2 4 2 5 8 11 15 20 24 22 23 22 21 19 16 14 11 10 10 10 10 12 13 13 12 10 6 3 2 3 3 5 7 9 10 11 11 12 13 13 12 11 14 14 14 16 16 15 16 16 16 17 17 17 17 17 17 17 17 16 16 17 17 17 16 16 15 14 14 14
5 4 2 1 3 2 2 2 1 1 2 4 1 4 4 6 6 7 12 15 10 4 7 8 4 6 3 3 4 3 7 7 11 17 19 24 23 22 22 21 19 16 14 11 10 9 9 10 11 13 13 13 10 7 5 2 3 3 5 7 8 9 11 11 11 14 15 12 10 12 14 14 15 15 15 16 16 16 16 16 16 17 17 17 16 16 15 16 17 17 17 17 16 15 14 13 13
5 3 2 3 4 3 2 2 2 2 3 4 2 3 3 6 9 11 12 10 4 2 6 6 5 7 3 3 4 5 8 6 12 17 20 24 23 22 21 20 19 17 14 11 10 9 9 9 11 12 13 13 11 9 6 3 3 4 4 6 8 8 10 11 11 14 15 13 11 10 11 14 14 15 15 15 15 15 15 15 16 16 16 16 16 16 15 16 16 17 17 16 15 14 14 13 13
6 2 2 3 3 4 3 1 2 2 2 2 3 4 3 6 14 14 10 6 3 5 6 6 8 6 2 5 5 5 6 8 13 16 22 24 23 22 20 20 18 17 14 11 9 8 8 8 10 12 13 13 12 11 8 5 3 3 3 6 8 7 8 10 10 12 15 14 12 10 10 12 13 14 14 14 15 15 14 15 15 15 15 16 16 16 16 16 15 15 15 15 14 14 13 13 12
7 2 3 4 2 2 2 1 2 2 3 3 4 6 5 7 17 14 9 4 2 5 7 9 8 3 4 6 4 6 8 11 14 19 24 23 23 21 20 19 17 16 14 12 9 8 8 8 9 11 13 13 12 12 10 7 4 2 3 7 7 6 6 8 9 10 13 14 11 11 11 12 13 13 13 14 14 14 14 14 15 15 15 16 16 16 16 16 14 14 14 13 13 12 12 11 11
6 4 3 3 2 2 2 2 1 2 4 4 5 7 6 11 18 14 11 4 3 5 7 10 5 3 6 6 5 7 10 13 17 23 24 23 23 21 19 18 16 15 13 12 10 8 7 7 9 11 13 13 12 12 11 9 6 3 4 7 7 6 6 6 7 8 11 12 11 11 12 13 12 13 14 14 14 13 13 13 14 14 15 15 15 15 16 15 14 13 13 12 12 11 11 11 11
5 5 4 3 3 1 2 3 2 3 4 4 6 7 7 15 17 11 9 4 4 6 10 10 4 6 8 5 6 9 12 15 20 24 23 23 22 20 19 18 16 14 12 11 10 8 7 6 8 10 12 12 13 12 11 9 8 6 5 7 7 6 6 6 6 7 8 9 10 10 11 12 11 12 13 13 13 13 13 13 13 13 14 14 15 15 15 15 14 13 12 12 11 11 11 11 11
3 2 3 3 2 2 2 2 3 5 5 3 2 4 9 18 15 9 9 5 6 6 10 10 4 8 6 2 7 10 15 18 22 23 22 23 21 20 19 17 16 14 12 11 9 9 7 6 7 9 10 11 12 11 11 10 9 8 7 7 7 6 6 6 6 7 7 7 8 8 10 11 11 11 12 12 12 13 12 12 12 13 13 14 14 14 14 14 14 13 12 12 12 11 11 11 11
3 2 3 3 2 2 2 1 3 4 5 2 2 5 13 19 13 11 12 6 8 7 9 11 5 6 4 2 7 12 18 21 23 23 22 22 21 20 18 17 16 15 14 12 10 9 8 6 6 8 9 10 11 11 10 10 9 9 8 8 8 7 7 6 6 7 6 6 7 8 10 10 10 10 11 11 11 12 12 11 11 11 12 12 13 13 13 13 13 13 12 12 12 12 12 12 11
4 3 3 2 1 1 3 1 2 1 3 3 1 9 16 15 10 13 14 7 9 8 7 12 7 5 4 3 7 15 20 23 25 24 23 22 20 20 18 18 16 16 15 13 11 9 8 7 6 7 9 9 9 10 9 9 9 9 8 7 7 7 7 7 6 6 6 6 6 8 9 10 9 9 10 10 10 10 11 10 10 10 10 11 11 12 12 13 13 13 12 12 12 12 12 12 12
4 3 4 2 2 1 3 1 0 2 3 3 2 12 15 10 9 12 13 8 9 10 7 11 11 4 4 5 6 16 22 24 27 24 24 22 20 20 18 18 17 16 16 14 13 11 10 8 7 7 8 9 9 9 9 9 9 8 8 7 7 7 7 7 6 6 6 6 6 8 9 9 9 9 9 8 8 9 9 9 9 9 9 9 10 10 11 12 12 12 12 12 11 11 11 12 12
5 4 4 2 2 1 3 1 2 2 4 3 4 11 10 7 10 10 11 9 7 11 9 10 14 7 3 6 4 13 23 24 27 25 24 23 21 21 20 19 18 17 17 16 15 13 11 9 8 7 8 9 9 10 10 10 9 8 8 8 7 7 7 7 6 6 6 7 6 7 8 9 8 8 8 7 7 7 8 8 8 8 8 8 8 8 9 10 11 11 11 11 11 10 10 10 10
5 4 3 2 2 2 3 3 3 2 4 3 4 10 7 4 10 9 8 9 7 11 13 10 15 13 5 5 5 13 24 24 26 25 25 25 24 24 23 22 21 20 19 18 17 15 13 11 9 8 8 9 9 10 10 10 9 8 8 8 8 7 7 7 6 7 7 7 6 7 8 8 8 8 8 7 6 6 6 6 6 7 6 7 7 7 7 8 9 9 8 8 8 8 8 8 8
3 3 3 2 2 2 4 4 5 3 2 3 3 10 9 4 10 10 5 8 8 9 14 13 14 17 12 7 5 12 23 25 27 26 27 28 27 27 26 25 24 23 22 21 19 17 16 13 11 9 9 10 10 10 10 10 9 9 8 8 8 7 7 7 7 7 7 7 6 6 7 8 8 8 8 7 6 5 5 5 5 5 5 5 5 5 5 6 6 6 6 6 6 6 7 7 7
2 3 2 3 4 3 3 4 5 2 4 6 5 7 11 7 10 12 5 5 8 7 11 14 15 18 17 13 8 12 22 26 27 28 29 30 30 30 29 28 26 25 24 22 21 20 18 15 13 10 9 10 11 11 11 11 10 9 9 8 8 8 8 7 7 7 7 7 7 6 6 7 7 7 7 7 6 5 5 4 4 4 3 3 3 4 4 4 4 4 4 5 5 5 5 6 6
1 2 2 4 5 4 4 5 6 3 6 8 7 5 10 9 10 12 7 4 7 9 13 15 17 21 19 17 11 12 21 26 28 28 29 30 30 30 29 28 27 26 24 22 21 20 19 17 14 12 10 10 11 11 11 11 11 10 10 9 9 9 8 7 7 7 7 7 7 7 6 6 6 7 7 7 6 6 5 4 4 3 3 2 2 2 2 2 2 3 3 4 4 5 5 5 6
1 3 3 4 5 4 3 4 4 5 6 7 6 3 6 10 11 12 9 5 5 15 23 21 21 22 20 20 15 14 21 26 28 29 29 30 30 30 30 28 26 25 23 22 21 20 19 17 16 13 11 11 11 12 12 11 11 11 11 10 10 9 9 8 7 7 7 7 7 7 7 6 6 6 6 7 6 6 6 5 4 3 3 2 1 1 1 1 1 2 3 3 4 4 5 5 5
1 1 4 6 5 3 3 4 5 8 8 7 5 3 5 8 12 15 14 8 8 15 21 22 23 21 18 20 18 16 21 25 27 29 30 30 31 31 30 29 27 25 23 22 21 20 19 18 16 15 13 12 12 12 12 12 11 11 11 11 10 10 9 8 7 7 7 6 7 7 7 6 6 6 6 6 6 6 6 5 4 4 3 2 2 2 1 1 0 1 2 3 4 4 5 5 5
1 2 3 8 9 6 5 5 8 12 10 7 4 5 6 7 9 14 19 18 14 9 11 14 18 20 19 18 19 18 20 24 26 26 28 29 30 31 31 30 29 27 24 23 21 20 20 19 17 16 15 14 13 13 13 13 12 12 11 11 11 10 9 8 7 7 6 6 6 6 6 6 6 6 5 5 5 5 6 5 5 4 4 3 3 2 2 2 1 2 2 3 3 4 4 5 5
4 2 5 7 9 11 10 9 11 13 10 9 7 6 6 9 6 7 19 27 21 10 7 6 10 16 20 19 20 20 20 21 22 23 24 26 27 29 30 30 29 27 25 24 22 21 20 20 19 18 16 15 14 14 14 14 14 13 13 13 12 11 10 9 8 7 7 6 6 6 6 6 6 6 5 5 5 5 6 5 5 5 4 4 3 3 3 3 3 3 3 3 4 4 5 5 6
5 4 5 6 7 11 11 10 11 11 9 9 8 7 6 10 7 6 19 26 21 18 13 8 7 12 19 20 20 20 20 21 21 23 24 24 25 27 29 30 29 28 26 24 23 22 21 20 20 19 18 16 15 16 16 15 15 15 14 13 12 12 10 10 9 9 8 7 6 6 6 6 5 5 5 5 5 5 5 6 6 6 5 5 4 5 5 5 4 4 5 5 5 5 5 6 6
8 8 7 5 6 8 9 9 7 7 8 7 6 6 6 7 6 10 21 21 18 19 19 17 12 11 16 19 21 21 21 22 22 22 22 23 25 27 28 29 29 29 26 25 24 23 22 22 21 20 19 18 17 17 17 17 16 16 15 14 13 12 11 11 11 10 9 9 8 7 6 6 6 6 6 5 5 5 5 5 6 6 6 6 6 6 6 6 6 6 6 6 6 6 6 6 6
6 10 8 8 11 10 9 11 9 9 10 8 6 4 3 4 4 7 14 14 15 17 18 21 18 15 15 18 21 22 22 22 21 20 22 25 26 27 27 28 30 29 27 26 26 24 23 23 22 21 20 19 19 19 18 18 18 17 15 15 15 13 13 12 12 11 11 10 9 9 8 7 7 7 6 6 6 5 5 5 6 6 6 7 7 7 7 7 7 7 7 7 7 7 7 8 8
4 5 4 8 11 11 11 12 13 10 7 7 6 2 1 3 3 10 11 7 10 15 17 20 21 19 17 17 20 22 23 22 21 23 25 25 24 24 26 27 28 27 27 27 25 24 24 24 23 22 21 20 21 20 20 20 19 18 17 16 15 15 15 15 14 13 12 11 11 11 10 10 9 9 8 8 7 7 7 7 7 7 7 7 8 8 8 8 8 8 8 8 8 9 9 10 10
4 3 1 5 4 6 11 11 11 6 3 4 2 1 3 2 8 14 11 9 9 12 15 18 20 21 19 18 20 22 23 23 24 26 25 23 22 23 24 24 24 25 25 25 24 25 24 24 24 23 22 22 22 22 21 21 20 19 19 18 16 16 17 17 16 15 13 13 13 13 12 12 11 11 11 10 10 10 10 9 9 9 9 9 9 9 9 9 9 9 10 10 10 11 11 12 12
2 2 1 3 5 4 9 9 8 6 5 5 5 2 5 6 17 15 7 10 11 12 14 16 17 19 21 20 21 23 24 25 25 25 24 23 22 23 24 23 23 24 23 23 24 24 24 24 24 23 23 23 22 22 22 22 22 21 21 19 18 18 18 18 17 16 15 15 14 14 14 13 13 13 13 13 13 13 13 12 11 11 12 12 12 12 12 12 12 12 12 12 13 13 13 13 14
2 2 1 1 1 4 6 6 9 7 6 9 8 3 5 6 17 13 8 11 11 15 17 16 17 18 21 22 22 23 24 25 25 25 25 23 23 24 25 24 24 24 24 24 23 23 24 24 24 24 24 24 23 23 24 23 23 23 23 22 21 20 20 19 18 18 17 17 16 16 15 15 15 15 15 15 15 16 16 15 14 14 14 15 15 15 15 14 14 14 15 15 15 15 15 15 16
1 2 1 1 3 5 6 4 10 8 5 9 8 3 5 7 14 10 9 14 14 17 19 17 18 17 20 22 23 24 24 25 26 26 26 24 24 25 25 25 25 25 24 24 23 24 24 24 25 25 25 25 24 24 24 24 24 25 25 24 23 22 22 21 20 20 19 19 19 18 17 17 16 16 16 16 16 17 17 17 16 16 17 17 17 17 17 17 17 17 17 17 17 17 17 18 18
2 2 2 2 4 4 4 3 8 7 2 6 6 3 2 5 11 6 5 13 16 19 21 19 20 19 20 22 23 25 25 26 28 28 26 24 24 24 24 23 24 24 24 23 23 25 26 25 26 27 26 26 25 24 24 25 25 26 26 25 25 25 24 23 22 21 21 22 21 21 20 19 18 17 17 17 17 18 18 18 17 18 18 18 18 19 18 18 19 19 19 19 18 18 18 19 19
1 1 3 3 3 2 2 3 4 4 2 3 4 4 5 6 10 8 5 8 11 16 21 20 20 21 21 22 24 26 26 27 27 25 23 23 23 24 23 22 22 23 24 24 24 25 25 26 27 28 27 26 26 25 24 25 26 26 27 27 27 27 26 25 24 24 24 23 23 22 21 21 20 19 18 18 18 19 19 19 19 19 19 18 19 19 19 20 21 21 21 21 19 17 18 19 19
5 5 4 2 1 2 5 4 2 3 2 3 4 4 8 9 14 19 16 12 13 16 17 16 17 20 22 24 25 26 28 29 27 24 21 22 24 25 25 24 23 24 24 25 25 26 26 26 28 29 29 28 27 26 26 26 26 27 28 28 29 29 29 28 27 27 27 26 25 24 23 22 22 21 20 20 19 20 20 20 20 20 20 19 19 19 19 21 21 21 21 22 18 15 17 19 19
9 7 5 4 3 4 5 5 3 2 2 3 7 6 7 9 12 20 22 16 17 19 16 16 18 19 21 24 27 27 29 29 26 24 24 25 26 26 27 26 26 26 26 26 26 27 27 27 29 30 30 30 29 29 29 29 29 29 30 30 31 31 31 31 30 30 29 28 27 25 24 24 23 22 21 21 21 20 20 20 19 20 20 19 19 18 18 18 19 19 20 21 18 16 17 17 18
5 4 4 4 4 5 4 4 5 1 3 5 7 7 8 10 10 17 23 14 13 18 18 21 24 22 23 23 25 27 28 29 26 25 27 28 27 26 27 28 29 30 29 29 28 28 28 27 29 31 31 31 32 33 32 32 32 31 31 32 32 32 32 32 32 31 31 29 28 27 26 25 24 23 22 22 22 21 21 20 20 20 19 19 19 18 18 17 18 18 18 21 19 16 16 16 17
4 4 4 3 3 5 5 4 4 1 2 4 4 5 9 11 10 18 21 10 11 19 19 22 27 27 27 25 26 26 26 27 27 26 28 29 28 27 28 29 30 32 31 29 29 28 28 28 29 30 31 33 34 34 34 34 33 32 32 32 31 32 33 33 32 32 31 30 29 28 27 26 25 24 24 24 23 23 22 22 21 20 19 18 18 18 17 18 18 16 17 20 17 13 14 16 15
4 4 3 3 3 3 6 4 3 1 2 4 3 3 9 11 10 16 19 13 16 24 24 25 28 26 27 27 28 28 27 27 26 25 27 29 29 28 28 29 30 30 30 30 30 30 30 30 30 30 30 33 35 35 35 35 34 33 32 31 30 32 32 32 32 31 30 29 29 28 28 28 26 25 25 24 24 24 23 22 21 20 19 17 17 18 18 18 18 16 15 17 17 15 17 16 14
4 4 4 4 2 1 5 4 3 0 1 2 3 4 7 8 7 12 20 21 23 29 29 28 29 27 28 30 30 31 31 31 30 27 26 27 29 30 30 30 29 30 30 31 32 32 31 31 31 31 31 32 34 35 35 35 34 33 33 32 31 31 32 31 30 30 30 29 29 29 29 28 27 26 25 24 24 23 22 22 21 20 19 18 17 18 19 18 17 17 16 15 17 19 20 17 14
3 4 6 4 3 5 6 3 3 3 2 1 2 7 8 8 10 10 14 16 18 25 26 25 29 30 31 33 32 32 33 34 34 31 29 28 28 29 30 30 29 30 31 31 31 31 31 31 31 31 31 32 33 33 34 34 35 35 34 34 34 34 34 33 32 32 31 30 30 30 29 28 27 26 25 24 24 22 21 21 20 20 19 20 21 20 18 17 17 18 18 16 15 17 19 18 15
3 4 7 7 7 6 3 3 4 3 4 2 1 6 7 6 10 11 9 8 9 15 17 19 26 27 29 32 32 33 33 33 34 33 32 32 30 28 29 30 31 31 31 31 30 29 30 31 31 32 32 32 33 33 33 34 35 36 37 37 37 37 37 36 35 33 31 31 30 29 28 26 26 26 25 24 23 23 22 20 20 19 17 19 21 20 18 17 16 16 16 14 11 12 15 18 18
3 6 8 8 7 5 2 2 2 0 4 3 2 5 7 5 6 8 7 9 10 10 9 15 23 24 26 30 30 32 33 34 35 35 34 34 33 31 29 31 33 33 32 30 29 29 29 31 32 32 33 33 34 34 34 34 36 37 38 38 38 38 38 37 35 32 31 30 29 28 26 25 24 24 24 24 22 22 23 22 21 19 19 18 17 20 22 16 12 13 14 13 11 11 13 14 17
4 6 10 9 6 5 3 2 1 3 3 3 2 2 6 6 6 6 6 8 9 8 8 13 21 26 28 30 31 32 33 35 36 37 36 36 35 34 32 32 33 33 32 32 31 29 29 29 31 32 33 34 35 35 35 35 36 37 38 39 38 38 38 36 34 32 31 30 29 28 26 25 24 23 23 22 22 22 22 22 21 22 23 20 17 23 24 15 10 12 14 14 12 13 15 12 12
4 5 9 8 6 5 4 2 2 1 3 5 1 2 5 7 5 4 4 8 11 12 11 11 18 26 28 29 32 33 34 37 38 39 38 37 35 35 34 34 33 33 34 34 33 30 28 28 30 32 32 34 35 35 36 36 36 37 37 38 39 38 37 35 33 32 31 30 30 29 27 26 24 23 23 21 21 20 21 21 21 22 22 20 22 25 20 16 15 13 13 15 12 12 14 13 11
4 7 7 5 4 4 3 2 2 1 3 7 4 3 5 8 5 4 2 7 13 13 9 10 17 24 25 26 29 31 33 37 38 38 37 36 35 34 35 36 36 36 36 36 35 33 31 30 31 33 33 33 34 35 36 36 36 36 37 38 39 38 37 35 34 33 32 31 31 30 29 28 26 25 23 21 20 18 18 19 20 21 20 21 24 23 20 21 20 13 13 15 14 13 14 13 12
10 7 7 7 5 4 3 1 2 0 7 6 6 7 4 7 4 7 5 6 10 10 7 9 15 23 28 28 28 28 29 31 32 32 32 33 33 33 35 37 38 38 39 40 39 38 36 33 32 32 32 32 33 34 35 35 35 36 37 38 38 38 37 36 35 34 34 33 32 31 30 28 27 26 24 22 20 18 18 18 19 20 20 21 22 20 21 24 20 15 14 15 16 17 18 16 15
10 5 5 5 3 3 3 3 2 4 8 2 3 5 5 7 5 5 5 5 5 8 8 9 13 22 30 32 32 29 24 23 24 26 28 30 31 32 34 36 36 37 39 41 41 40 39 35 33 32 32 32 32 33 33 34 35 35 36 36 37 36 36 36 36 35 34 33 32 31 30 29 27 26 24 22 19 18 18 18 18 18 18 20 20 18 20 21 19 18 15 13 15 19 20 18 16
7 4 6 5 1 1 1 2 1 5 6 1 2 1 4 11 6 4 7 7 6 10 12 14 16 23 30 32 31 23 17 18 20 20 23 25 29 30 31 32 32 33 35 38 39 40 39 36 35 33 32 32 32 32 32 32 33 34 34 35 35 35 35 35 35 34 33 32 31 30 29 28 27 26 24 21 18 17 17 17 17 17 18 19 18 17 18 20 20 20 16 14 16 19 20 18 16
7 7 7 6 4 3 4 4 1 4 5 2 1 1 4 9 4 6 11 10 11 14 17 20 20 22 26 26 22 16 14 17 16 16 18 19 23 26 28 29 29 30 31 34 36 38 38 38 37 34 32 31 31 32 32 32 32 32 32 32 33 33 34 34 33 32 32 31 29 29 27 26 26 24 22 19 16 16 16 16 17 17 18 18 17 16 17 19 20 19 16 15 17 17 17 16 16
8 7 6 5 6 5 6 5 3 3 2 2 2 2 4 4 3 6 10 11 14 16 17 17 18 22 23 23 22 19 20 20 17 16 16 15 16 19 23 27 28 29 29 30 33 36 37 38 38 36 33 31 31 32 32 32 32 31 31 31 31 32 32 32 32 31 30 29 28 27 25 25 24 22 20 17 16 16 16 16 17 18 19 19 18 16 16 16 18 18 17 17 17 18 16 16 17
5 4 5 4 5 4 3 4 4 4 1 1 2 4 4 4 6 10 9 10 13 16 18 17 21 25 22 23 26 26 28 27 24 23 20 16 15 14 16 21 25 26 25 26 28 32 35 36 36 36 33 32 31 31 31 31 31 31 31 31 31 31 31 31 30 29 28 27 26 25 24 23 22 20 19 18 17 17 17 17 18 19 19 19 18 17 17 17 18 18 19 19 19 19 18 18 20
2 3 7 5 3 7 5 2 1 4 3 3 2 6 6 3 8 11 9 11 10 11 13 16 23 25 21 24 30 30 29 27 25 26 25 23 20 17 14 14 18 21 20 21 23 27 30 31 33 33 32 32 31 31 31 30 31 32 32 31 31 31 31 30 29 27 26 25 24 23 23 22 21 20 20 19 19 18 18 18 19 19 19 20 18 17 19 20 20 19 19 20 20 20 20 19 20
6 6 8 4 3 3 4 1 2 3 3 4 2 8 7 2 6 5 2 7 10 10 10 11 15 17 19 25 30 29 27 24 23 23 26 27 25 20 15 13 14 16 16 16 18 21 25 27 29 31 31 32 31 31 31 31 32 32 32 32 31 31 30 29 27 25 24 24 24 23 23 23 22 22 21 20 20 20 19 19 19 18 19 18 16 16 20 21 22 23 21 20 21 22 21 20 18
5 7 8 6 3 4 3 3 2 2 3 4 3 5 5 6 8 4 1 5 7 9 10 9 10 13 18 23 25 24 24 22 20 19 22 25 24 20 16 14 13 13 13 13 14 16 19 21 24 26 28 29 29 30 31 31 32 32 32 32 31 30 29 27 26 25 24 24 24 24 24 24 23 22 22 21 21 21 21 21 20 19 21 20 16 18 21 21 22 23 21 21 22 22 21 19 18
3 5 6 2 2 5 4 3 3 4 4 4 4 4 4 7 7 6 7 9 7 7 9 9 12 16 18 17 17 18 19 18 16 16 18 21 23 21 17 14 13 12 12 12 12 14 16 18 21 22 24 26 27 28 29 30 31 30 30 30 30 29 28 27 25 24 24 24 24 24 24 24 23 21 21 21 21 21 21 21 20 20 24 23 20 21 22 21 22 23 22 22 23 22 20 21 21
4 7 8 5 2 3 2 2 2 4 5 4 2 4 6 5 4 9 12 12 10 12 12 11 15 17 15 12 12 13 14 14 14 15 17 20 22 20 17 14 13 12 11 11 11 12 14 16 19 20 23 24 25 26 26 27 27 27 27 27 27 27 26 25 25 24 25 24 24 25 24 23 22 21 22 22 21 21 21 20 21 22 23 20 19 20 21 21 21 22 22 22 21 20 19 20 19
9 7 8 9 6 4 4 6 3 3 4 4 3 5 9 5 4 8 10 10 11 13 11 12 16 15 10 10 10 10 10 10 11 12 15 20 21 19 16 14 13 11 10 11 11 12 13 14 15 16 18 20 21 23 23 24 24 24 24 24 24 24 24 24 24 24 24 24 24 24 23 23 23 22 22 20 20 21 21 20 21 21 18 14 15 18 21 21 21 22 21 20 19 19 18 17 14
Wind_Direction
308 313 331 339 345 332 332 354 24 19 65 96 312 136 229 223 180 172 158 161 136 184 188 160 158 155 149 178 186 177 127 164 170 138 160 156 150 151 153 154 153 149 142 129 122 122 136 142 133 132 133 132 126 110 88 66 65 63 72 89 92 90 89 89 92 90 92 91 88 89 88 88 89 88 90 93 93 91 92 92 91 89 90 90 89 88 88 87 83 82 83 84 86 87 88 88 88
307 311 341 349 347 341 338 21 72 324 41 57 283 175 271 297 183 191 178 190 172 166 174 155 156 161 162 158 159 126 136 169 152 136 140 148 150 151 153 152 153 150 144 132 122 116 129 144 141 134 135 134 128 118 95 70 66 63 68 86 93 97 97 88 84 79 85 92 90 89 87 88 90 90 90 91 94 92 91 90 90 90 89 87 88 87 90 94 92 89 87 86 87 89 92 93 92
311 304 339 345 342 3 41 32 67 132 50 29 276 243 266 175 209 206 188 187 140 143 147 149 153 159 138 131 150 158 174 170 148 137 138 151 154 152 152 152 153 152 148 135 121 113 122 144 148 137 137 136 132 129 105 73 58 70 80 88 94 97 97 91 87 76 75 85 90 93 93 94 93 92 92 93 97 96 94 93 91 90 88 89 89 88 90 97 99 95 91 89 89 91 95 96 94
328 311 326 343 346 16 56 42 101 118 62 226 305 274 232 195 208 214 182 139 132 135 138 147 150 166 163 147 169 179 180 172 160 148 149 159 159 154 152 152 154 154 151 139 122 115 119 140 152 143 139 139 138 136 112 77 55 73 85 87 94 98 99 97 100 90 74 76 84 93 94 94 95 92 93 95 96 97 94 91 91 89 90 93 92 91 90 95 99 98 95 95 95 95 97 97 95
347 345 315 306 356 40 83 70 108 95 119 187 25 282 229 206 205 196 154 136 132 130 145 155 143 168 175 172 182 194 174 170 166 160 160 162 159 156 153 152 155 156 154 142 126 118 116 132 152 150 143 143 143 139 122 81 57 78 92 87 87 98 104 101 106 105 90 81 81 93 96 94 97 97 95 96 95 94 93 91 91 90 91 91 91 91 91 93 96 97 97 99 98 97 98 98 95
2 25 28 45 77 91 113 96 117 138 228 174 159 273 243 212 190 153 150 146 142 125 156 169 148 154 148 157 184 166 160 170 175 172 165 161 159 157 154 153 155 156 157 147 132 121 114 127 150 155 149 146 145 141 135 96 63 95 110 94 84 92 102 101 105 110 106 101 95 98 104 101 98 98 97 97 97 95 93 92 91 91 93 94 97 97 95 95 95 95 95 97 98 98 98 96 93
9 44 54 91 73 48 99 137 175 228 232 168 169 252 255 212 174 146 153 162 195 222 176 187 161 147 128 146 158 156 163 179 179 175 164 158 159 159 156 156 157 158 159 151 137 125 116 126 148 158 154 147 146 143 139 125 93 107 120 104 90 88 101 107 110 114 114 113 111 108 107 103 100 101 99 98 96 95 92 92 91 91 94 96 98 97 95 93 93 93 93 94 95 96 94 92 91
3 33 69 101 47 24 85 130 230 217 216 213 232 234 258 201 169 156 162 173 206 206 190 189 168 154 152 150 154 167 163 165 170 170 163 158 160 162 160 158 158 161 161 155 145 131 123 124 142 157 160 152 147 145 143 146 132 111 120 116 99 87 93 102 110 116 119 117 115 118 112 104 102 103 100 97 94 94 91 89 90 89 90 89 89 89 89 90 90 90 89 90 91 92 92 90 88
9 30 75 94 78 41 52 327 264 250 253 258 246 234 255 195 172 164 168 186 192 184 192 183 174 178 171 153 151 164 156 156 164 166 163 161 164 165 164 161 161 164 162 159 153 139 131 127 139 153 164 164 153 147 150 156 162 152 130 129 109 95 90 92 105 110 117 121 121 123 117 110 106 105 103 99 97 97 93 87 86 84 83 83 83 84 86 89 88 86 84 84 85 86 84 80 76
17 41 82 86 94 62 340 292 255 270 251 258 257 243 241 188 176 169 166 178 191 180 181 175 179 175 160 157 152 163 162 159 164 167 166 163 165 168 166 161 163 168 164 162 159 150 140 133 141 149 162 171 165 156 157 163 166 158 141 141 122 105 98 92 101 99 110 119 122 122 117 114 112 110 106 104 103 99 95 89 87 83 82 81 82 83 85 87 86 83 81 80 79 77 73 67 62
20 43 71 76 78 113 247 248 264 273 260 295 276 244 215 180 170 166 166 168 183 174 170 171 193 163 148 161 166 171 169 164 167 168 167 166 167 170 167 161 164 170 169 167 166 160 149 142 147 150 159 170 174 168 164 168 166 152 141 141 127 111 104 97 99 95 104 110 112 116 116 116 113 111 108 107 105 100 96 90 89 86 85 84 83 83 83 85 84 82 79 79 76 72 68 62 57
23 26 55 90 120 181 208 235 267 288 298 315 257 214 183 173 165 168 173 172 174 170 180 180 194 167 142 164 175 177 173 166 168 170 169 169 169 169 168 164 163 169 175 176 173 169 160 151 154 155 159 168 175 175 173 173 165 155 150 143 130 118 111 102 99 95 102 107 106 113 119 119 113 109 106 104 102 99 97 92 90 88 88 87 85 85 84 85 83 81 79 77 76 72 68 65 61
66 146 79 110 165 166 163 224 269 315 315 270 208 175 166 170 176 182 172 166 173 167 192 190 185 175 161 166 181 182 178 171 169 172 172 171 172 170 169 167 165 170 178 184 180 176 173 164 163 161 159 168 177 179 180 180 171 165 161 148 137 126 120 111 103 102 108 110 109 117 125 125 119 115 109 105 103 101 99 96 94 91 90 90 90 89 87 87 86 83 81 78 77 75 73 70 68
79 140 100 120 99 112 160 252 290 328 287 270 219 167 166 175 189 185 171 168 189 180 190 194 185 175 181 179 193 189 180 175 172 174 175 174 175 173 171 171 170 174 180 188 187 185 184 178 173 167 164 169 180 182 183 186 182 176 168 153 143 135 128 120 115 116 119 118 118 127 133 134 130 124 116 112 110 107 104 101 98 96 94 94 94 94 93 92 90 89 86 84 81 79 76 73 71
91 108 91 111 69 39 191 244 263 140 246 266 156 168 169 184 189 186 185 186 200 190 179 189 188 184 200 191 201 194 184 177 175 176 178 177 179 178 175 175 176 179 183 190 190 192 192 192 184 172 172 173 180 185 183 187 190 181 172 163 153 145 138 132 130 130 128 127 127 136 143 144 141 135 127 123 119 114 110 107 103 102 101 99 98 96 96 94 93 93 92 90 87 83 78 75 71
93 100 72 95 139 207 194 196 134 117 258 245 163 175 171 188 184 186 201 202 202 194 189 191 194 198 191 184 192 189 186 182 177 178 182 180 181 182 180 180 183 185 188 192 193 194 197 201 194 180 178 178 181 184 184 186 191 186 177 172 161 153 148 144 143 143 139 137 136 142 149 151 152 148 142 136 130 123 117 114 111 108 105 104 100 96 95 93 93 92 92 91 88 84 78 74 69
87 94 77 99 171 207 195 191 174 162 271 270 187 185 175 185 186 190 206 205 205 199 202 205 204 208 191 170 174 184 187 186 180 180 184 184 185 186 185 186 188 190 191 194 195 195 200 205 201 191 185 184 184 184 185 186 189 188 182 175 165 160 157 154 155 155 149 147 145 147 153 159 161 159 156 151 144 136 128 123 121 117 113 109 102 97 92 89 90 88 88 87 84 80 74 68 61
90 101 111 174 179 186 181 183 192 177 307 319 228 197 188 194 188 186 193 202 210 210 211 215 215 216 213 195 177 187 190 188 185 184 186 188 189 190 190 190 192 194 194 195 196 196 200 205 205 200 193 190 188 188 189 188 189 189 186 179 169 166 165 162 163 163 160 156 154 155 159 165 166 167 167 164 161 153 145 138 132 127 120 115 106 99 90 83 83 81 80 77 74 69 64 59 52
99 104 129 205 188 205 236 228 214 196 307 314 310 221 203 210 189 185 194 201 201 212 219 219 221 221 219 210 196 191 193 193 191 189 190 192 194 195 195 194 196 197 197 196 196 197 199 203 206 204 202 198 192 191 193 191 189 190 190 185 177 173 171 170 170 169 167 163 163 165 166 170 170 171 174 176 175 170 165 158 149 144 135 123 113 103 92 82 74 66 62 59 59 56 52 48 44
97 113 152 232 213 234 298 285 254 274 301 305 320 258 217 220 194 188 197 186 196 217 218 214 220 223 219 212 205 196 195 198 197 194 195 198 200 201 201 201 200 200 200 199 198 198 200 202 204 204 207 206 200 195 194 194 190 189 190 187 182 176 173 173 173 172 171 170 169 171 172 175 177 177 180 183 185 184 181 179 173 167 161 148 132 118 103 88 68 51 40 35 36 37 38 35 33
111 146 177 232 209 220 302 338 308 307 320 302 301 288 236 222 201 193 181 162 221 230 224 221 226 227 220 214 211 202 197 200 201 200 201 202 205 206 206 207 206 205 203 201 202 202 202 203 204 203 207 209 207 201 196 196 193 191 188 185 182 177 174 172 170 170 169 172 174 176 177 177 182 185 188 189 192 195 193 192 192 189 189 185 179 168 147 120 56 34 21 15 11 13 18 19 20
89 203 216 217 197 201 269 326 333 318 324 304 274 273 254 212 205 203 184 190 232 235 234 234 237 236 231 223 215 205 199 202 204 205 206 207 209 209 209 210 210 210 208 206 205 204 205 206 206 205 206 207 207 206 200 197 197 194 188 185 183 179 177 175 172 169 164 166 169 173 178 179 185 190 196 198 199 204 204 205 207 209 212 215 218 220 214 207 294 346 354 353 352 356 357 358 2
140 276 258 215 206 207 248 286 319 316 309 291 260 262 250 201 217 214 201 217 229 237 249 244 244 239 236 232 220 211 205 205 208 211 214 213 213 212 211 211 212 214 212 211 209 207 208 208 209 209 209 208 205 206 203 198 198 196 192 189 187 186 185 181 176 174 169 164 163 167 172 176 183 189 199 206 211 215 217 218 221 226 226 234 239 243 255 249 268 287 309 325 330 332 335 340 344
164 229 267 235 225 228 247 277 306 310 295 285 274 265 244 210 224 222 217 228 228 230 250 250 249 236 232 231 224 222 217 215 216 217 220 220 219 216 214 214 215 217 217 216 214 211 211 210 212 213 212 211 207 206 206 202 200 199 198 196 194 194 191 186 182 182 181 175 171 170 170 173 177 183 194 206 219 226 229 230 232 237 237 244 251 255 262 260 272 278 286 295 301 309 316 325 329
190 199 229 228 236 232 245 274 300 306 293 292 272 254 252 225 223 240 236 235 229 229 237 248 255 234 229 229 227 225 222 222 221 220 222 223 222 219 218 219 219 221 221 219 218 216 215 214 215 216 216 214 211 209 208 207 204 204 204 203 201 200 196 192 192 191 191 191 189 184 179 178 176 181 190 199 216 229 235 238 238 241 243 246 254 261 263 265 271 275 280 283 287 298 307 315 319
218 208 210 217 246 241 251 270 299 316 298 295 261 256 271 230 222 256 250 244 236 232 236 243 249 241 231 230 229 227 225 225 223 224 226 224 222 221 221 221 222 223 223 222 222 221 219 218 218 218 218 217 216 213 211 211 210 209 208 208 207 205 203 201 202 202 201 202 202 201 199 194 191 193 196 198 209 223 232 240 241 242 245 248 252 257 260 263 267 274 278 282 288 293 295 299 303
212 210 221 240 258 257 256 256 273 305 301 277 237 254 281 197 188 253 252 244 236 232 235 239 241 244 238 233 231 230 230 230 229 229 227 225 223 223 223 223 223 223 223 223 222 222 222 222 221 220 220 219 220 219 215 214 215 213 211 212 212 211 211 212 215 215 214 213 211 212 214 214 214 213 214 214 216 225 231 237 241 242 244 245 248 251 256 260 264 272 275 280 282 282 284 286 290
201 194 226 256 261 261 254 247 262 290 303 259 224 243 289 136 200 246 246 239 230 227 232 237 237 240 239 235 232 231 233 232 231 230 229 230 230 230 227 225 224 223 223 223 221 221 222 222 223 222 222 221 221 222 220 218 217 216 215 217 217 217 219 222 224 226 225 224 221 221 221 223 227 229 232 232 232 235 237 241 244 247 247 245 248 250 253 257 261 267 271 273 275 277 281 283 287
199 167 229 289 305 273 250 239 244 250 269 243 175 294 288 180 234 247 245 239 232 227 230 233 235 235 235 234 231 231 234 233 230 233 236 239 240 239 235 232 229 227 227 225 223 222 222 222 223 224 225 225 224 223 223 222 221 220 220 222 223 223 224 227 229 230 230 229 227 225 225 228 231 235 239 241 242 242 242 245 247 252 255 254 253 254 255 258 261 264 265 268 271 274 279 283 286
197 163 112 336 6 307 241 220 216 213 236 206 142 270 279 240 246 248 248 239 231 229 230 232 234 233 232 232 231 233 234 234 236 240 244 244 244 243 241 239 236 233 231 228 226 223 223 224 224 226 226 227 226 225 225 224 224 224 224 225 227 229 229 230 230 230 231 230 230 229 228 230 232 236 240 244 245 245 246 247 248 251 257 259 259 259 259 260 262 264 265 266 270 271 274 278 280
179 173 65 42 3 281 253 198 183 192 226 190 151 243 258 265 262 253 242 242 235 236 236 232 233 233 233 233 233 236 236 237 242 245 246 246 245 244 243 241 239 238 235 231 227 226 226 226 227 228 228 229 229 228 228 226 226 227 227 228 230 232 234 234 232 232 233 234 235 235 235 236 237 239 242 245 246 246 246 247 248 250 253 257 259 260 260 261 262 261 263 264 266 270 271 273 274
89 174 287 21 194 262 290 213 186 194 212 179 159 238 250 263 268 259 242 241 238 242 243 235 234 235 235 236 235 238 240 240 242 242 243 244 244 244 243 242 241 240 239 235 231 229 229 228 229 230 230 231 231 230 230 229 229 229 230 231 232 234 236 237 236 235 237 238 241 242 243 243 243 244 245 247 246 245 247 247 248 249 252 255 257 260 260 261 261 260 261 263 264 267 268 270 271
35 160 207 218 204 242 306 263 214 214 166 176 195 235 253 262 254 244 238 240 236 242 248 242 237 238 237 239 239 239 240 240 240 241 242 242 242 245 244 243 242 242 241 240 236 234 231 229 230 231 231 231 232 232 232 231 230 231 232 232 233 235 237 238 238 239 240 241 244 246 248 248 247 247 247 248 247 247 248 247 247 247 249 251 253 256 258 260 261 260 261 261 263 267 271 274 276
75 187 211 220 197 194 262 285 249 207 168 212 217 221 243 272 265 250 232 239 238 239 248 250 244 243 241 241 241 241 241 240 241 242 241 241 242 244 245 244 242 242 242 241 239 237 235 233 233 234 234 233 233 234 233 233 233 234 234 234 235 236 238 239 240 240 242 243 245 248 250 250 248 247 247 248 249 249 248 248 247 246 248 250 252 254 256 257 258 260 262 263 265 271 278 283 287
174 194 208 221 186 209 231 255 261 157 172 218 194 222 250 267 277 268 255 240 240 244 250 257 255 249 246 244 243 243 243 243 243 242 242 242 242 243 244 243 242 242 242 241 240 239 237 235 234 236 236 235 234 235 234 235 235 236 236 236 236 237 238 239 240 241 241 242 244 246 248 248 247 246 247 248 250 251 251 251 251 251 251 252 256 257 258 259 261 264 265 266 266 270 279 287 293
193 182 180 174 182 236 238 243 262 169 158 220 214 226 242 245 261 266 260 242 235 247 254 258 259 254 249 247 245 245 244 245 245 243 243 243 243 244 244 244 244 244 243 242 240 240 238 235 234 235 234 234 235 235 235 234 234 234 234 235 235 235 236 238 239 240 241 242 243 245 245 245 245 245 246 248 250 251 253 255 257 259 260 260 261 261 264 267 268 271 273 272 269 264 268 279 289
185 144 171 183 187 247 258 253 286 225 181 240 230 223 237 241 242 253 257 247 231 242 248 251 253 252 251 250 248 247 246 247 248 245 244 245 244 244 245 245 244 244 244 243 241 240 239 237 235 234 232 233 234 234 234 233 232 232 232 233 233 234 236 237 238 239 240 241 241 242 243 243 244 245 246 247 249 251 253 255 257 259 262 264 265 265 268 271 269 270 274 278 279 271 265 274 287
167 151 174 208 208 246 254 246 299 349 190 265 253 228 243 243 242 249 251 239 230 238 238 244 250 251 251 252 253 253 251 252 251 249 248 247 246 244 243 244 243 244 244 244 244 242 241 240 238 236 233 233 234 234 234 234 233 232 233 234 235 236 237 237 238 238 240 241 241 242 242 243 244 245 247 248 250 251 253 255 257 260 261 264 267 270 274 277 278 271 262 270 283 282 272 279 292
157 141 144 220 223 259 273 263 308 40 176 277 306 263 256 250 247 253 252 240 240 244 241 246 251 253 253 255 259 260 260 258 256 254 252 250 248 244 242 242 242 243 244 244 244 243 243 242 241 239 236 234 234 234 234 234 234 234 235 237 238 241 241 241 241 242 242 243 243 242 243 244 245 246 248 250 252 253 254 255 256 259 261 264 266 269 271 274 281 281 267 266 272 273 271 277 288
151 147 158 219 193 193 263 275 304 322 171 272 321 303 272 264 259 257 255 247 246 251 250 251 252 254 258 260 263 265 265 264 261 258 256 253 249 243 239 238 239 240 241 241 241 242 242 241 241 240 239 238 237 235 234 234 236 237 238 239 241 244 246 246 245 244 243 241 241 239 240 241 242 245 247 250 252 253 254 256 256 257 261 265 266 267 269 269 273 278 279 273 260 260 267 271 275
194 181 175 187 174 203 237 294 316 318 342 331 322 298 274 252 251 255 256 247 244 250 250 250 249 250 257 260 261 263 264 264 262 258 255 254 251 243 238 236 237 238 239 240 240 241 242 242 242 242 242 242 240 238 236 235 237 237 238 238 239 241 243 243 241 239 238 237 237 236 236 237 240 243 246 249 252 252 252 252 253 254 254 257 261 265 269 268 266 269 278 283 267 259 263 261 262
215 213 183 173 173 191 224 350 2 0 322 307 201 270 270 248 242 244 252 245 238 246 247 248 249 248 250 254 258 261 261 262 262 259 255 253 253 248 240 235 236 237 237 238 239 241 243 244 243 243 242 242 242 241 238 237 237 236 237 236 235 236 237 237 236 235 235 236 237 238 239 239 240 243 245 248 250 252 254 253 252 253 250 249 255 267 274 270 265 263 271 283 281 269 262 252 251
218 216 176 163 151 137 113 44 40 199 265 281 136 230 271 287 256 245 248 249 245 249 257 257 256 252 247 248 255 259 260 261 260 260 258 255 253 250 244 237 234 235 235 235 236 239 242 244 244 243 242 242 242 242 240 238 238 237 237 237 236 237 238 238 237 236 237 240 242 243 244 244 243 244 246 248 249 251 255 257 259 264 266 263 258 261 269 273 271 265 266 274 276 268 260 251 251
227 202 158 154 147 156 181 130 186 227 267 291 124 187 273 277 255 239 234 254 266 268 271 265 256 253 251 249 252 257 260 263 262 260 260 258 255 252 248 243 238 235 234 234 235 237 242 245 246 245 243 242 241 241 241 239 239 239 239 240 240 240 240 241 242 241 242 244 247 248 248 248 247 247 248 249 251 252 253 254 256 258 261 265 258 253 261 274 276 265 263 268 270 263 256 253 257
237 183 146 155 156 172 186 155 243 299 355 283 231 118 273 268 247 229 228 246 255 250 244 248 247 247 249 250 251 254 257 260 261 261 261 261 260 257 253 249 245 240 237 237 237 237 244 248 248 247 244 242 240 240 240 240 240 240 241 242 243 243 244 244 245 245 245 246 248 249 250 251 250 250 251 252 255 256 256 256 254 252 250 251 252 254 262 271 265 262 265 264 263 262 254 249 259
176 147 104 100 98 92 114 166 224 14 300 256 206 145 264 273 231 180 225 243 239 240 234 235 243 243 247 250 251 252 252 255 259 262 264 264 264 261 257 252 248 245 242 241 240 240 244 248 246 243 243 242 240 239 239 240 240 240 241 242 244 245 245 246 246 246 246 247 248 250 251 252 252 253 254 255 257 257 256 256 254 253 249 242 246 253 261 262 259 262 268 260 251 254 250 242 253
131 118 79 67 46 47 62 63 103 190 270 251 177 167 210 283 239 172 201 228 219 228 230 236 242 241 245 251 252 251 251 254 259 263 264 263 262 258 254 251 247 245 244 243 243 243 245 246 242 239 240 241 240 239 239 239 240 240 241 242 244 245 246 247 247 246 247 248 249 251 252 253 254 255 257 258 259 257 255 254 252 251 248 243 244 247 248 250 251 253 257 253 247 249 246 236 238
130 101 99 86 12 31 39 5 79 216 252 264 200 180 174 246 245 176 238 269 220 216 220 227 234 234 237 244 252 254 253 254 257 260 261 259 258 256 253 250 246 244 243 243 243 243 243 240 237 236 236 237 238 238 238 238 240 240 241 243 244 245 246 246 247 248 249 249 251 253 255 257 258 259 261 261 259 258 257 256 254 250 247 247 249 247 239 237 241 242 243 246 245 245 245 239 235
130 102 116 108 31 68 175 233 155 235 248 290 291 240 206 244 244 187 252 274 241 228 229 227 228 231 232 235 244 250 249 250 254 258 260 257 255 253 252 250 246 244 243 244 243 240 237 232 232 234 233 234 236 236 237 238 239 240 241 243 244 244 245 246 248 249 250 251 252 254 256 257 259 261 263 262 260 259 257 255 252 249 247 248 251 247 235 233 239 238 235 240 242 239 239 239 235
151 150 150 151 157 164 201 204 212 251 251 277 271 199 251 271 283 208 227 242 236 234 240 242 241 240 238 238 243 240 235 243 250 258 259 257 256 253 250 248 245 244 244 244 243 237 232 228 228 231 231 232 233 234 236 236 238 240 241 243 243 244 245 246 247 248 249 251 252 254 256 257 260 261 262 262 259 256 254 251 247 244 244 245 244 238 228 228 234 233 231 235 234 228 231 238 237
178 168 158 175 177 179 191 191 200 220 239 294 262 208 207 232 277 238 239 266 271 259 257 260 259 255 252 257 262 254 246 245 245 253 257 259 263 258 252 247 244 245 246 246 243 235 229 226 227 230 230 230 232 233 235 236 237 239 240 241 242 242 243 245 246 248 249 251 251 253 255 256 258 259 260 259 255 251 247 244 243 242 240 238 235 232 227 225 226 226 227 228 224 219 221 228 230
200 147 141 209 196 148 143 185 184 147 155 253 216 233 219 202 274 277 261 269 275 268 267 266 259 258 260 266 269 265 261 258 252 249 251 257 268 273 265 252 245 246 247 247 241 232 227 226 226 229 230 231 233 234 235 236 237 237 238 240 240 241 242 243 244 246 247 248 250 251 252 254 255 255 254 250 246 244 241 240 241 240 237 235 232 228 225 224 226 227 226 224 220 217 220 225 227
155 147 176 207 156 117 113 209 19 90 194 243 203 249 282 312 281 276 259 255 263 264 265 260 255 259 263 264 266 266 267 268 262 252 246 249 260 272 277 265 250 246 245 243 237 230 227 227 228 230 231 233 234 235 235 235 235 236 238 239 240 240 240 241 243 244 245 246 246 247 248 249 247 247 245 240 239 238 237 238 237 235 238 237 234 228 221 221 226 225 221 222 226 230 234 236 232
136 181 184 141 80 97 110 163 1 65 221 265 231 240 264 273 265 287 266 240 254 261 260 259 258 260 260 259 261 264 267 271 271 259 246 243 250 259 268 268 254 245 241 238 233 230 229 229 231 233 235 236 236 237 236 236 236 236 237 238 239 240 240 241 242 241 242 243 242 243 242 241 241 239 237 234 234 233 233 233 232 236 237 230 228 228 221 221 226 223 219 224 233 236 236 231 228
146 172 165 136 161 205 154 153 186 158 221 270 286 269 252 212 230 286 351 218 235 260 268 273 269 257 256 261 265 269 271 269 270 265 251 242 242 249 255 256 251 242 238 236 233 234 233 233 234 235 236 236 236 236 236 236 236 236 237 237 238 239 239 239 239 238 237 237 238 238 237 238 237 234 233 230 228 230 232 232 232 234 228 222 234 238 224 220 224 222 223 228 228 227 229 234 242
61 132 159 162 183 189 174 156 168 167 192 243 298 320 266 218 203 198 231 238 226 242 260 265 262 253 253 267 281 283 277 268 263 261 252 238 231 237 242 243 245 241 236 235 233 234 234 234 234 234 234 234 234 235 235 235 235 236 236 236 236 237 236 236 235 234 234 235 236 236 236 237 234 232 232 228 224 228 230 231 235 233 224 225 241 241 225 221 225 223 223 224 219 218 230 246 255
142 157 176 195 168 139 169 174 144 137 162 203 272 286 262 245 190 182 211 231 224 229 243 248 254 255 253 265 288 294 280 263 257 255 244 228 220 224 230 233 240 242 239 236 232 234 234 234 235 235 235 235 236 237 237 237 237 237 237 236 236 235 233 233 232 231 233 235 235 236 236 235 231 227 226 226 228 227 227 235 238 230 222 224 236 235 225 223 222 218 216 215 218 225 241 251 251
177 176 180 187 171 127 162 205 202 117 159 181 178 264 267 243 191 195 205 218 224 229 236 246 254 259 255 255 270 287 278 249 245 246 227 215 212 215 222 227 236 241 240 237 234 234 236 236 237 238 237 237 237 237 238 238 238 237 236 235 233 232 231 230 230 230 232 233 234 235 234 231 228 225 224 227 227 222 229 238 228 216 214 221 225 219 213 213 212 212 217 226 236 243 248 244 232